Time,TemperatureF,DewpointF,PressureIn,WindDirection,WindDirectionDegrees,WindSpeedMPH,WindSpeedGustMPH,Humidity,HourlyPrecipIn,Conditions,Clouds,dailyrainin,SoftwareType,DateUTC
2013-05-09 00:00:00,48.6,47.8,29.99,North,351,0.0,0.0,97,0.00,,---,0.00,VWS V14.01,2013-05-09 04:00:00,
2013-05-09 00:01:00,48.5,47.7,29.99,North,351,0.0,0.0,97,0.00,,---,0.00,VWS V14.01,2013-05-09 04:01:00,
2013-05-09 00:06:00,48.2,47.4,29.99,North,351,0.0,0.0,97,0.00,,---,0.00,VWS V14.01,2013-05-09 04:06:00,
2013-05-09 00:11:00,48.1,47.3,29.99,North,351,0.0,0.0,97,0.00,,---,0.00,VWS V14.01,2013-05-09 04:11:00,
2013-05-09 00:16:00,48.2,47.4,29.99,North,351,0.0,0.0,97,0.00,,---,0.00,VWS V14.01,2013-05-09 04:16:00,
2013-05-09 00:21:00,48.3,47.5,29.99,North,351,0.0,0.0,97,0.00,,---,0.00,VWS V14.01,2013-05-09 04:21:00,
2013-05-09 00:26:00,48.2,47.4,29.99,North,351,0.0,3.0,97,0.00,,---,0.00,VWS V14.01,2013-05-09 04:26:00,
2013-05-09 00:30:00,48.2,47.4,29.99,North,351,0.0,3.0,97,0.00,,---,0.00,VWS V14.01,2013-05-09 04:30:00,
2013-05-09 00:31:00,48.1,47.3,29.99,North,351,0.0,0.0,97,0.00,,---,0.00,VWS V14.01,2013-05-09 04:31:00,
2013-05-09 00:36:00,48.0,47.2,29.99,North,351,0.0,0.0,97,0.00,,---,0.00,VWS V14.01,2013-05-09 04:36:00,
2013-05-09 00:41:00,47.9,47.1,29.99,North,351,0.0,0.0,97,0.00,,---,0.00,VWS V14.01,2013-05-09 04:41:00,
2013-05-09 00:46:00,47.9,47.1,29.99,North,351,0.0,0.0,97,0.00,,---,0.00,VWS V14.01,2013-05-09 04:46:00,
2013-05-09 00:51:00,47.8,47.0,29.99,North,351,0.0,0.0,97,0.00,,---,0.00,VWS V14.01,2013-05-09 04:51:00,
2013-05-09 00:56:00,47.7,46.9,29.99,North,351,0.0,0.0,97,0.00,,---,0.00,VWS V14.01,2013-05-09 04:56:00,
2013-05-09 01:00:00,47.7,46.9,29.99,North,351,0.0,0.0,97,0.00,,---,0.00,VWS V14.01,2013-05-09 05:00:00,
2013-05-09 01:01:00,47.6,46.8,29.99,North,351,0.0,0.0,97,0.00,,---,0.00,VWS V14.01,2013-05-09 05:01:00,
2013-05-09 01:06:00,47.4,46.6,29.99,North,351,0.0,0.0,97,0.00,,---,0.00,VWS V14.01,2013-05-09 05:06:00,
2013-05-09 01:11:00,47.2,46.4,29.99,North,351,0.0,0.0,97,0.00,,---,0.00,VWS V14.01,2013-05-09 05:11:00,
2013-05-09 01:16:00,47.1,46.3,29.99,North,351,0.0,0.0,97,0.00,,---,0.00,VWS V14.01,2013-05-09 05:16:00,
2013-05-09 01:21:00,47.0,46.2,29.99,North,351,0.0,0.0,97,0.00,,---,0.00,VWS V14.01,2013-05-09 05:21:00,
2013-05-09 01:26:00,47.1,46.3,29.99,North,351,0.0,0.0,97,0.00,,---,0.00,VWS V14.01,2013-05-09 05:26:00,
2013-05-09 01:30:00,47.1,46.6,29.99,North,351,0.0,0.0,98,0.00,,---,0.00,VWS V14.01,2013-05-09 05:30:00,
2013-05-09 01:31:00,47.2,46.7,29.99,North,351,0.0,0.0,98,0.00,,---,0.00,VWS V14.01,2013-05-09 05:31:00,
2013-05-09 01:36:00,47.3,46.8,29.99,North,351,0.0,0.0,98,0.00,,---,0.00,VWS V14.01,2013-05-09 05:36:00,
2013-05-09 01:41:00,47.2,46.7,29.98,North,351,0.0,0.0,98,0.00,,---,0.00,VWS V14.01,2013-05-09 05:41:00,
2013-05-09 01:46:00,46.8,46.0,29.98,North,351,0.0,0.0,97,0.00,,---,0.00,VWS V14.01,2013-05-09 05:46:00,
2013-05-09 01:51:00,46.6,45.8,29.98,North,351,0.0,0.0,97,0.00,,---,0.00,VWS V14.01,2013-05-09 05:51:00,
2013-05-09 01:56:00,46.4,45.6,29.98,North,351,0.0,3.0,97,0.00,,---,0.00,VWS V14.01,2013-05-09 05:56:00,
2013-05-09 02:00:00,46.4,45.6,29.98,North,351,0.0,3.0,97,0.00,,---,0.00,VWS V14.01,2013-05-09 06:00:00,
2013-05-09 02:01:00,46.4,45.6,29.98,North,351,0.0,0.0,97,0.00,,---,0.00,VWS V14.01,2013-05-09 06:01:00,
2013-05-09 02:06:00,46.4,45.9,29.98,North,351,0.0,0.0,98,0.00,,---,0.00,VWS V14.01,2013-05-09 06:06:00,
2013-05-09 02:11:00,46.4,45.9,29.98,North,351,0.0,0.0,98,0.00,,---,0.00,VWS V14.01,2013-05-09 06:11:00,
2013-05-09 02:16:00,46.5,46.0,29.98,North,351,0.0,0.0,98,0.00,,---,0.00,VWS V14.01,2013-05-09 06:16:00,
2013-05-09 02:21:00,46.5,46.0,29.98,North,351,0.0,0.0,98,0.00,,---,0.00,VWS V14.01,2013-05-09 06:21:00,
2013-05-09 02:26:00,46.4,45.9,29.98,North,351,0.0,0.0,98,0.00,,---,0.00,VWS V14.01,2013-05-09 06:26:00,
2013-05-09 02:30:00,46.3,45.8,29.98,North,351,0.0,0.0,98,0.00,,---,0.00,VWS V14.01,2013-05-09 06:30:00,
2013-05-09 02:31:00,46.2,45.7,29.98,North,351,0.0,0.0,98,0.00,,---,0.00,VWS V14.01,2013-05-09 06:31:00,
2013-05-09 02:36:00,45.8,45.0,29.98,North,351,1.0,3.0,97,0.00,,---,0.00,VWS V14.01,2013-05-09 06:36:00,
2013-05-09 02:41:00,45.6,44.8,29.98,North,351,0.0,3.0,97,0.00,,---,0.00,VWS V14.01,2013-05-09 06:41:00,
2013-05-09 02:46:00,45.6,45.1,29.98,North,351,0.0,3.0,98,0.00,,---,0.00,VWS V14.01,2013-05-09 06:46:00,
2013-05-09 02:51:00,45.6,45.1,29.98,North,351,1.0,3.0,98,0.00,,---,0.00,VWS V14.01,2013-05-09 06:51:00,
2013-05-09 02:56:00,45.6,45.1,29.98,North,351,0.0,3.0,98,0.00,,---,0.00,VWS V14.01,2013-05-09 06:56:00,
2013-05-09 03:00:00,45.7,45.2,29.98,North,351,0.0,3.0,98,0.00,,---,0.00,VWS V14.01,2013-05-09 07:00:00,
2013-05-09 03:01:00,45.7,45.2,29.98,North,351,0.0,0.0,98,0.00,,---,0.00,VWS V14.01,2013-05-09 07:01:00,
2013-05-09 03:06:00,45.9,45.4,29.97,North,351,0.0,2.0,98,0.00,,---,0.00,VWS V14.01,2013-05-09 07:06:00,
2013-05-09 03:11:00,46.0,45.5,29.98,North,351,0.0,3.0,98,0.00,,---,0.00,VWS V14.01,2013-05-09 07:11:00,
2013-05-09 03:16:00,46.0,45.5,29.98,North,351,0.0,3.0,98,0.00,,---,0.00,VWS V14.01,2013-05-09 07:16:00,
2013-05-09 03:21:00,46.0,45.5,29.98,North,351,1.0,3.0,98,0.00,,---,0.00,VWS V14.01,2013-05-09 07:21:00,
2013-05-09 03:26:00,45.9,45.4,29.97,North,351,0.0,3.0,98,0.00,,---,0.00,VWS V14.01,2013-05-09 07:26:00,
2013-05-09 03:30:00,45.9,45.4,29.97,North,351,0.0,3.0,98,0.00,,---,0.00,VWS V14.01,2013-05-09 07:30:00,
2013-05-09 03:31:00,45.8,45.3,29.97,North,351,0.0,0.0,98,0.00,,---,0.00,VWS V14.01,2013-05-09 07:31:00,
2013-05-09 03:36:00,45.8,45.3,29.97,North,351,0.0,3.0,98,0.00,,---,0.00,VWS V14.01,2013-05-09 07:36:00,
2013-05-09 03:41:00,45.9,45.4,29.97,North,351,0.0,3.0,98,0.00,,---,0.00,VWS V14.01,2013-05-09 07:41:00,
2013-05-09 03:46:00,45.9,45.4,29.97,North,351,0.0,3.0,98,0.00,,---,0.00,VWS V14.01,2013-05-09 07:46:00,
2013-05-09 03:51:00,45.9,45.4,29.97,North,351,0.0,3.0,98,0.00,,---,0.00,VWS V14.01,2013-05-09 07:51:00,
2013-05-09 03:56:00,45.8,45.3,29.97,North,351,0.0,3.0,98,0.00,,---,0.00,VWS V14.01,2013-05-09 07:56:00,
2013-05-09 04:00:00,45.9,45.4,29.97,North,351,0.0,3.0,98,0.00,,---,0.00,VWS V14.01,2013-05-09 08:00:00,
2013-05-09 04:01:00,46.0,45.5,29.97,North,351,0.0,0.0,98,0.00,,---,0.00,VWS V14.01,2013-05-09 08:01:00,
2013-05-09 04:06:00,45.5,45.0,29.97,North,351,0.0,0.0,98,0.00,,---,0.00,VWS V14.01,2013-05-09 08:06:00,
2013-05-09 04:11:00,45.3,44.5,29.97,North,351,0.0,0.0,97,0.00,,---,0.00,VWS V14.01,2013-05-09 08:11:00,
2013-05-09 04:16:00,45.1,44.3,29.98,North,351,0.0,0.0,97,0.00,,---,0.00,VWS V14.01,2013-05-09 08:16:00,
2013-05-09 04:21:00,44.8,44.0,29.97,North,351,0.0,0.0,97,0.00,,---,0.00,VWS V14.01,2013-05-09 08:21:00,
2013-05-09 04:26:00,44.8,44.3,29.98,North,351,0.0,0.0,98,0.00,,---,0.00,VWS V14.01,2013-05-09 08:26:00,
2013-05-09 04:30:00,44.7,44.2,29.98,North,351,0.0,0.0,98,0.00,,---,0.00,VWS V14.01,2013-05-09 08:30:00,
2013-05-09 04:31:00,44.7,44.2,29.98,North,351,0.0,0.0,98,0.00,,---,0.00,VWS V14.01,2013-05-09 08:31:00,
2013-05-09 04:36:00,44.7,44.2,29.97,North,351,0.0,0.0,98,0.00,,---,0.00,VWS V14.01,2013-05-09 08:36:00,
2013-05-09 04:41:00,44.8,44.3,29.97,North,351,0.0,0.0,98,0.00,,---,0.00,VWS V14.01,2013-05-09 08:41:00,
2013-05-09 04:46:00,44.8,44.3,29.98,North,351,0.0,0.0,98,0.00,,---,0.00,VWS V14.01,2013-05-09 08:46:00,
2013-05-09 04:51:00,44.7,44.2,29.98,North,351,0.0,0.0,98,0.00,,---,0.00,VWS V14.01,2013-05-09 08:51:00,
2013-05-09 04:56:00,44.5,44.0,29.98,North,351,0.0,0.0,98,0.00,,---,0.00,VWS V14.01,2013-05-09 08:56:00,
2013-05-09 05:00:00,44.4,43.9,29.98,North,351,0.0,0.0,98,0.00,,---,0.00,VWS V14.01,2013-05-09 09:00:00,
2013-05-09 05:01:00,44.4,43.9,29.98,North,351,0.0,0.0,98,0.00,,---,0.00,VWS V14.01,2013-05-09 09:01:00,
2013-05-09 05:06:00,44.4,43.9,29.98,North,351,0.0,0.0,98,0.00,,---,0.00,VWS V14.01,2013-05-09 09:06:00,
2013-05-09 05:11:00,44.4,43.9,29.98,North,351,0.0,0.0,98,0.00,,---,0.00,VWS V14.01,2013-05-09 09:11:00,
2013-05-09 05:16:00,44.5,44.0,29.98,North,351,0.0,0.0,98,0.00,,---,0.00,VWS V14.01,2013-05-09 09:16:00,
2013-05-09 05:21:00,44.7,44.2,29.97,North,351,0.0,0.0,98,0.00,,---,0.00,VWS V14.01,2013-05-09 09:21:00,
2013-05-09 05:26:00,44.7,44.2,29.98,North,351,0.0,0.0,98,0.00,,---,0.00,VWS V14.01,2013-05-09 09:26:00,
2013-05-09 05:30:00,44.5,44.0,29.98,North,351,0.0,0.0,98,0.00,,---,0.00,VWS V14.01,2013-05-09 09:30:00,
2013-05-09 05:31:00,44.4,43.9,29.98,North,351,0.0,0.0,98,0.00,,---,0.00,VWS V14.01,2013-05-09 09:31:00,
2013-05-09 05:36:00,44.1,43.6,29.98,North,351,1.0,2.0,98,0.00,,---,0.00,VWS V14.01,2013-05-09 09:36:00,
2013-05-09 05:41:00,44.0,43.5,29.98,North,351,0.0,2.0,98,0.00,,---,0.00,VWS V14.01,2013-05-09 09:41:00,
2013-05-09 05:46:00,44.0,43.5,29.98,North,351,0.0,2.0,98,0.00,,---,0.00,VWS V14.01,2013-05-09 09:46:00,
2013-05-09 05:51:00,44.0,43.5,29.98,North,351,1.0,2.0,98,0.00,,---,0.00,VWS V14.01,2013-05-09 09:51:00,
2013-05-09 05:56:00,44.2,43.7,29.99,North,351,0.0,2.0,98,0.00,,---,0.00,VWS V14.01,2013-05-09 09:56:00,
2013-05-09 06:00:00,44.2,43.7,29.99,North,351,0.0,2.0,98,0.00,,---,0.00,VWS V14.01,2013-05-09 10:00:00,
2013-05-09 06:01:00,44.2,43.7,29.98,North,351,0.0,0.0,98,0.00,,---,0.00,VWS V14.01,2013-05-09 10:01:00,
2013-05-09 06:06:00,44.9,44.4,29.99,North,351,0.0,0.0,98,0.00,,---,0.00,VWS V14.01,2013-05-09 10:06:00,
2013-05-09 06:11:00,44.8,44.3,29.99,North,351,2.0,2.0,98,0.00,,---,0.00,VWS V14.01,2013-05-09 10:11:00,
2013-05-09 06:16:00,44.5,44.0,29.99,North,351,1.0,3.0,98,0.00,,---,0.00,VWS V14.01,2013-05-09 10:16:00,
2013-05-09 06:21:00,44.1,43.6,30.00,North,351,0.0,3.0,98,0.00,,---,0.00,VWS V14.01,2013-05-09 10:21:00,
2013-05-09 06:26:00,43.9,43.4,30.00,North,351,0.0,3.0,98,0.00,,---,0.00,VWS V14.01,2013-05-09 10:26:00,
2013-05-09 06:30:00,43.9,43.4,30.00,North,351,3.0,3.0,98,0.00,,---,0.00,VWS V14.01,2013-05-09 10:30:00,
2013-05-09 06:31:00,43.9,43.4,30.00,North,351,1.0,3.0,98,0.00,,---,0.00,VWS V14.01,2013-05-09 10:31:00,
2013-05-09 06:36:00,44.1,43.6,30.00,North,351,0.0,3.0,98,0.00,,---,0.00,VWS V14.01,2013-05-09 10:36:00,
2013-05-09 06:41:00,44.4,43.9,30.01,North,351,0.0,3.0,98,0.00,,---,0.00,VWS V14.01,2013-05-09 10:41:00,
2013-05-09 06:46:00,44.7,44.2,30.01,North,351,0.0,3.0,98,0.00,,---,0.00,VWS V14.01,2013-05-09 10:46:00,
2013-05-09 06:51:00,45.0,44.5,30.01,North,351,0.0,3.0,98,0.00,,---,0.00,VWS V14.01,2013-05-09 10:51:00,
2013-05-09 06:56:00,45.3,44.8,30.02,North,351,0.0,4.0,98,0.00,,---,0.00,VWS V14.01,2013-05-09 10:56:00,
2013-05-09 07:00:00,45.4,45.1,30.02,North,351,0.0,4.0,99,0.00,,---,0.00,VWS V14.01,2013-05-09 11:00:00,
2013-05-09 07:01:00,45.4,45.1,30.02,North,351,1.0,3.0,99,0.00,,---,0.00,VWS V14.01,2013-05-09 11:01:00,
2013-05-09 07:06:00,45.6,45.3,30.02,North,351,0.0,3.0,99,0.00,,---,0.00,VWS V14.01,2013-05-09 11:06:00,
2013-05-09 07:11:00,46.2,45.9,30.02,North,351,0.0,3.0,99,0.00,,---,0.00,VWS V14.01,2013-05-09 11:11:00,
2013-05-09 07:16:00,46.5,46.2,30.03,North,351,0.0,3.0,99,0.00,,---,0.00,VWS V14.01,2013-05-09 11:16:00,
2013-05-09 07:21:00,47.1,46.8,30.03,North,351,0.0,3.0,99,0.00,,---,0.00,VWS V14.01,2013-05-09 11:21:00,
2013-05-09 07:26:00,47.5,47.2,30.03,North,351,0.0,4.0,99,0.00,,---,0.00,VWS V14.01,2013-05-09 11:26:00,
2013-05-09 07:30:00,47.3,47.0,30.03,North,351,0.0,4.0,99,0.00,,---,0.00,VWS V14.01,2013-05-09 11:30:00,
2013-05-09 07:31:00,47.3,47.0,30.03,North,351,0.0,0.0,99,0.00,,---,0.00,VWS V14.01,2013-05-09 11:31:00,
2013-05-09 07:36:00,47.3,47.0,30.03,North,351,0.0,0.0,99,0.00,,---,0.00,VWS V14.01,2013-05-09 11:36:00,
2013-05-09 07:41:00,47.7,47.4,30.03,North,351,0.0,0.0,99,0.00,,---,0.00,VWS V14.01,2013-05-09 11:41:00,
2013-05-09 07:46:00,48.2,47.9,30.03,North,351,0.0,0.0,99,0.00,,---,0.00,VWS V14.01,2013-05-09 11:46:00,
2013-05-09 07:51:00,48.7,48.4,30.04,North,351,0.0,0.0,99,0.00,,---,0.00,VWS V14.01,2013-05-09 11:51:00,
2013-05-09 07:56:00,49.2,48.9,30.04,North,351,0.0,0.0,99,0.00,,---,0.00,VWS V14.01,2013-05-09 11:56:00,
2013-05-09 08:00:00,49.6,49.3,30.04,North,351,0.0,0.0,99,0.00,,---,0.00,VWS V14.01,2013-05-09 12:00:00,
2013-05-09 08:01:00,49.8,49.5,30.04,North,351,0.0,0.0,99,0.00,,---,0.00,VWS V14.01,2013-05-09 12:01:00,
2013-05-09 08:06:00,50.6,50.3,30.04,North,351,0.0,0.0,99,0.00,,---,0.00,VWS V14.01,2013-05-09 12:06:00,
2013-05-09 08:11:00,51.3,51.0,30.04,North,351,0.0,0.0,99,0.00,,---,0.00,VWS V14.01,2013-05-09 12:11:00,
2013-05-09 08:16:00,52.2,51.9,30.04,North,351,2.0,2.0,99,0.00,,---,0.00,VWS V14.01,2013-05-09 12:16:00,
2013-05-09 08:21:00,53.1,52.8,30.04,North,351,0.0,2.0,99,0.00,,---,0.00,VWS V14.01,2013-05-09 12:21:00,
2013-05-09 08:26:00,53.4,53.1,30.04,North,351,0.0,2.0,99,0.00,,---,0.00,VWS V14.01,2013-05-09 12:26:00,
2013-05-09 08:30:00,53.8,53.5,30.04,North,351,0.0,2.0,99,0.00,,---,0.00,VWS V14.01,2013-05-09 12:30:00,
2013-05-09 08:31:00,54.1,53.8,30.04,North,351,0.0,0.0,99,0.00,,---,0.00,VWS V14.01,2013-05-09 12:31:00,
2013-05-09 08:36:00,54.8,54.2,30.04,North,351,0.0,0.0,98,0.00,,---,0.00,VWS V14.01,2013-05-09 12:36:00,
2013-05-09 08:41:00,55.3,54.8,30.05,North,351,0.0,0.0,98,0.00,,---,0.00,VWS V14.01,2013-05-09 12:41:00,
2013-05-09 08:45:00,55.7,55.0,30.04,North,351,0.0,-999.0,98,-99.99,,,0.00,weatherlink.com 1.10,2013-05-09 12:45:00,
2013-05-09 08:50:00,56.2,55.7,30.04,North,351,0.0,0.0,98,0.00,,---,0.00,VWS V14.01,2013-05-09 12:50:00,
2013-05-09 08:55:00,56.7,56.1,30.04,North,351,0.0,0.0,98,0.00,,---,0.00,VWS V14.01,2013-05-09 12:55:00,
2013-05-09 09:00:00,57.6,57.0,30.04,North,351,0.0,0.0,98,0.00,,---,0.00,VWS V14.01,2013-05-09 13:00:00,
2013-05-09 09:05:00,58.4,57.8,30.04,North,351,0.0,0.0,98,0.00,,---,0.00,VWS V14.01,2013-05-09 13:05:00,
2013-05-09 09:10:00,59.2,58.6,30.04,North,351,0.0,0.0,98,0.00,,---,0.00,VWS V14.01,2013-05-09 13:10:00,
2013-05-09 09:15:00,59.6,59.0,30.04,North,351,0.0,0.0,98,0.00,,---,0.00,VWS V14.01,2013-05-09 13:15:00,
2013-05-09 09:20:00,60.0,59.4,30.04,North,351,0.0,0.0,98,0.00,,---,0.00,VWS V14.01,2013-05-09 13:20:00,
2013-05-09 09:25:00,60.3,59.7,30.04,North,351,0.0,0.0,98,0.00,,---,0.00,VWS V14.01,2013-05-09 13:25:00,
2013-05-09 09:30:00,60.8,60.0,30.05,North,351,0.0,0.0,97,0.00,,---,0.00,VWS V14.01,2013-05-09 13:30:00,
2013-05-09 09:35:00,61.6,60.2,30.05,North,351,0.0,0.0,95,0.00,,---,0.00,VWS V14.01,2013-05-09 13:35:00,
2013-05-09 09:40:00,62.2,58.9,30.05,North,351,0.0,4.0,89,0.00,,---,0.00,VWS V14.01,2013-05-09 13:40:00,
2013-05-09 09:45:00,62.6,59.0,30.04,North,11,0.0,5.0,88,0.00,,---,0.00,VWS V14.01,2013-05-09 13:45:00,
2013-05-09 09:50:00,63.4,59.5,30.04,North,11,0.0,5.0,87,0.00,,---,0.00,VWS V14.01,2013-05-09 13:50:00,
2013-05-09 09:55:00,63.8,59.2,30.05,North,11,3.0,5.0,85,0.00,,---,0.00,VWS V14.01,2013-05-09 13:55:00,
2013-05-09 10:00:00,64.3,59.4,30.04,North,11,0.0,0.0,84,0.00,,---,0.00,VWS V14.01,2013-05-09 14:00:00,
2013-05-09 10:05:00,64.9,59.6,30.04,South,188,0.0,3.0,83,0.00,,---,0.00,VWS V14.01,2013-05-09 14:05:00,
2013-05-09 10:10:00,65.4,59.4,30.04,South,188,0.0,3.0,81,0.00,,---,0.00,VWS V14.01,2013-05-09 14:10:00,
2013-05-09 10:15:00,65.9,60.9,30.04,South,169,0.0,5.0,84,0.00,,---,0.00,VWS V14.01,2013-05-09 14:15:00,
2013-05-09 10:20:00,66.2,59.5,30.04,South,170,1.0,6.0,79,0.00,,---,0.00,VWS V14.01,2013-05-09 14:20:00,
2013-05-09 10:25:00,66.5,61.2,30.04,SSE,148,0.0,6.0,83,0.00,,---,0.00,VWS V14.01,2013-05-09 14:25:00,
2013-05-09 10:30:00,67.0,60.3,30.03,SE,139,1.0,5.0,79,0.00,,---,0.00,VWS V14.01,2013-05-09 14:30:00,
2013-05-09 10:35:00,67.3,59.8,30.03,SSW,213,3.0,5.0,77,0.00,,---,0.00,VWS V14.01,2013-05-09 14:35:00,
2013-05-09 10:40:00,67.5,60.8,30.03,SSW,193,1.0,5.0,79,0.00,,---,0.00,VWS V14.01,2013-05-09 14:40:00,
2013-05-09 10:45:00,67.6,60.1,30.03,South,183,0.0,5.0,77,0.00,,---,0.00,VWS V14.01,2013-05-09 14:45:00,
2013-05-09 10:50:00,67.7,59.5,30.03,SW,230,0.0,5.0,75,0.00,,---,0.00,VWS V14.01,2013-05-09 14:50:00,
2013-05-09 10:55:00,67.9,60.1,30.03,SW,225,1.0,5.0,76,0.00,,---,0.00,VWS V14.01,2013-05-09 14:55:00,
2013-05-09 11:00:00,68.2,59.6,30.03,SSW,205,2.0,5.0,74,0.00,,---,0.00,VWS V14.01,2013-05-09 15:00:00,
2013-05-09 11:05:00,68.6,60.4,30.03,ENE,71,4.0,5.0,75,0.00,,---,0.00,VWS V14.01,2013-05-09 15:05:00,
2013-05-09 11:10:00,69.2,59.0,30.03,ENE,77,0.0,5.0,70,0.00,,---,0.00,VWS V14.01,2013-05-09 15:10:00,
2013-05-09 11:15:00,69.6,59.0,30.03,ESE,115,1.0,5.0,69,0.00,,---,0.00,VWS V14.01,2013-05-09 15:15:00,
2013-05-09 11:20:00,70.0,57.3,30.03,NNW,335,2.0,6.0,64,0.00,,---,0.00,VWS V14.01,2013-05-09 15:20:00,
2013-05-09 11:25:00,70.2,57.0,30.03,WNW,298,2.0,7.0,63,0.00,,---,0.00,VWS V14.01,2013-05-09 15:25:00,
2013-05-09 11:30:00,70.3,56.7,30.03,NW,306,6.0,14.0,62,0.00,,---,0.00,VWS V14.01,2013-05-09 15:30:00,
2013-05-09 11:35:00,70.4,57.2,30.03,NW,323,3.0,14.0,63,0.00,,---,0.00,VWS V14.01,2013-05-09 15:35:00,
2013-05-09 11:40:00,70.7,56.6,30.03,WNW,294,3.0,14.0,61,0.00,,---,0.00,VWS V14.01,2013-05-09 15:40:00,
2013-05-09 11:45:00,70.9,57.7,30.03,NNW,341,5.0,14.0,63,0.00,,---,0.00,VWS V14.01,2013-05-09 15:45:00,
2013-05-09 11:50:00,71.0,56.9,30.04,WNW,290,12.0,14.0,61,0.00,,---,0.00,VWS V14.01,2013-05-09 15:50:00,
2013-05-09 11:55:00,71.2,58.0,30.03,NNE,14,0.0,14.0,63,0.00,,---,0.00,VWS V14.01,2013-05-09 15:55:00,
2013-05-09 12:00:00,71.4,57.3,30.03,NW,311,3.0,6.0,61,0.00,,---,0.00,VWS V14.01,2013-05-09 16:00:00,
2013-05-09 12:05:00,71.6,57.5,30.03,North,10,4.0,11.0,61,0.00,,---,0.00,VWS V14.01,2013-05-09 16:05:00,
2013-05-09 12:10:00,71.9,58.2,30.03,NNW,330,1.0,11.0,62,0.00,,---,0.00,VWS V14.01,2013-05-09 16:10:00,
2013-05-09 12:15:00,72.2,57.1,30.03,East,84,0.0,11.0,59,0.00,,---,0.00,VWS V14.01,2013-05-09 16:15:00,
2013-05-09 12:20:00,72.4,57.3,30.03,NW,324,8.0,11.0,59,0.00,,---,0.00,VWS V14.01,2013-05-09 16:20:00,
2013-05-09 12:25:00,72.4,56.3,30.03,North,360,7.0,12.0,57,0.00,,---,0.00,VWS V14.01,2013-05-09 16:25:00,
2013-05-09 12:30:00,72.5,56.9,30.03,WNW,290,7.0,11.0,58,0.00,,---,0.00,VWS V14.01,2013-05-09 16:30:00,
2013-05-09 12:35:00,72.6,59.3,30.03,NW,320,4.0,11.0,63,0.00,,---,0.00,VWS V14.01,2013-05-09 16:35:00,
2013-05-09 12:40:00,72.8,58.1,30.03,West,280,2.0,11.0,60,0.00,,---,0.00,VWS V14.01,2013-05-09 16:40:00,
2013-05-09 12:45:00,73.0,57.4,30.03,NNW,341,3.0,11.0,58,0.00,,---,0.00,VWS V14.01,2013-05-09 16:45:00,
2013-05-09 12:50:00,72.9,59.1,30.03,NNW,348,0.0,11.0,62,0.00,,---,0.00,VWS V14.01,2013-05-09 16:50:00,
2013-05-09 12:55:00,73.0,57.8,30.03,NNW,332,3.0,11.0,59,0.00,,---,0.00,VWS V14.01,2013-05-09 16:55:00,
2013-05-09 13:00:00,73.4,57.7,30.03,West,271,0.0,4.0,58,0.00,,---,0.00,VWS V14.01,2013-05-09 17:00:00,
2013-05-09 13:05:00,73.8,58.1,30.03,NNE,22,2.0,6.0,58,0.00,,---,0.00,VWS V14.01,2013-05-09 17:05:00,
2013-05-09 13:10:00,74.2,56.0,30.03,NW,304,0.0,6.0,53,0.00,,---,0.00,VWS V14.01,2013-05-09 17:10:00,
2013-05-09 13:15:00,74.2,57.5,30.02,NNW,337,2.0,6.0,56,0.00,,---,0.00,VWS V14.01,2013-05-09 17:15:00,
2013-05-09 13:20:00,74.3,57.6,30.03,North,355,3.0,6.0,56,0.00,,---,0.00,VWS V14.01,2013-05-09 17:20:00,
2013-05-09 13:25:00,74.4,56.7,30.02,ENE,61,0.0,6.0,54,0.00,,---,0.00,VWS V14.01,2013-05-09 17:25:00,
2013-05-09 13:30:00,74.5,57.3,30.03,NNE,24,4.0,6.0,55,0.00,,---,0.00,VWS V14.01,2013-05-09 17:30:00,
2013-05-09 13:35:00,74.0,57.3,30.02,NNE,22,0.0,6.0,56,0.00,,---,0.00,VWS V14.01,2013-05-09 17:35:00,
2013-05-09 13:40:00,73.9,56.2,30.02,NNE,22,0.0,6.0,54,0.00,,---,0.00,VWS V14.01,2013-05-09 17:40:00,
2013-05-09 13:45:00,74.1,59.3,30.03,West,271,2.0,6.0,60,0.00,,---,0.00,VWS V14.01,2013-05-09 17:45:00,
2013-05-09 13:50:00,74.7,55.9,30.02,West,271,4.0,8.0,52,0.00,,---,0.00,VWS V14.01,2013-05-09 17:50:00,
2013-05-09 13:55:00,75.1,54.7,30.03,NW,310,5.0,10.0,49,0.00,,---,0.00,VWS V14.01,2013-05-09 17:55:00,
2013-05-09 14:00:00,75.3,55.4,30.02,NW,305,2.0,10.0,50,0.00,,---,0.00,VWS V14.01,2013-05-09 18:00:00,
2013-05-09 14:05:00,75.3,54.3,30.02,NNW,341,9.0,10.0,48,0.00,,---,0.00,VWS V14.01,2013-05-09 18:05:00,
2013-05-09 14:10:00,75.2,53.6,30.02,NW,313,6.0,10.0,47,0.00,,---,0.00,VWS V14.01,2013-05-09 18:10:00,
2013-05-09 14:15:00,75.4,54.9,30.02,WNW,284,5.0,10.0,49,0.00,,---,0.00,VWS V14.01,2013-05-09 18:15:00,
2013-05-09 14:20:00,76.0,55.5,30.02,NW,319,0.0,10.0,49,0.00,,---,0.00,VWS V14.01,2013-05-09 18:20:00,
2013-05-09 14:25:00,76.5,54.8,30.02,NW,315,6.0,10.0,47,0.00,,---,0.00,VWS V14.01,2013-05-09 18:25:00,
2013-05-09 14:30:00,76.5,53.6,30.01,WSW,257,3.0,4.0,45,0.00,,---,0.00,VWS V14.01,2013-05-09 18:30:00,
2013-05-09 14:35:00,76.5,55.4,30.01,WNW,286,1.0,5.0,48,0.00,,---,0.00,VWS V14.01,2013-05-09 18:35:00,
2013-05-09 14:40:00,76.8,54.5,30.01,West,281,1.0,8.0,46,0.00,,---,0.00,VWS V14.01,2013-05-09 18:40:00,
2013-05-09 14:45:00,77.1,52.9,30.01,WNW,294,1.0,8.0,43,0.00,,---,0.00,VWS V14.01,2013-05-09 18:45:00,
2013-05-09 14:50:00,77.2,54.8,30.01,NW,317,9.0,12.0,46,0.00,,---,0.00,VWS V14.01,2013-05-09 18:50:00,
2013-05-09 14:55:00,77.2,53.6,30.01,WNW,290,6.0,12.0,44,0.00,,---,0.00,VWS V14.01,2013-05-09 18:55:00,
2013-05-09 15:00:00,77.6,58.1,30.00,SSW,201,5.0,10.0,51,0.00,,---,0.00,VWS V14.01,2013-05-09 19:00:00,
2013-05-09 15:05:00,78.1,56.2,30.00,SSE,165,0.0,10.0,47,0.00,,---,0.00,VWS V14.01,2013-05-09 19:05:00,
2013-05-09 15:10:00,78.3,54.6,30.00,SSW,198,4.0,10.0,44,0.00,,---,0.00,VWS V14.01,2013-05-09 19:10:00,
2013-05-09 15:15:00,78.5,56.6,30.00,NNW,331,6.0,10.0,47,0.00,,---,0.00,VWS V14.01,2013-05-09 19:15:00,
2013-05-09 15:20:00,78.6,55.5,30.00,West,276,6.0,10.0,45,0.00,,---,0.00,VWS V14.01,2013-05-09 19:20:00,
2013-05-09 15:25:00,78.7,54.3,30.00,WNW,294,6.0,10.0,43,0.00,,---,0.00,VWS V14.01,2013-05-09 19:25:00,
2013-05-09 15:30:00,78.7,56.2,30.00,WNW,294,2.0,4.0,46,0.00,,---,0.00,VWS V14.01,2013-05-09 19:30:00,
2013-05-09 15:35:00,78.8,53.8,29.99,West,273,1.0,11.0,42,0.00,,---,0.00,VWS V14.01,2013-05-09 19:35:00,
2013-05-09 15:40:00,78.5,53.5,29.99,SW,230,2.0,11.0,42,0.00,,---,0.00,VWS V14.01,2013-05-09 19:40:00,
2013-05-09 15:45:00,77.9,53.0,29.99,West,276,1.0,11.0,42,0.00,,---,0.00,VWS V14.01,2013-05-09 19:45:00,
2013-05-09 15:50:00,77.3,54.9,29.99,West,278,3.0,11.0,46,0.00,,---,0.00,VWS V14.01,2013-05-09 19:50:00,
2013-05-09 15:55:00,77.3,54.9,29.99,WNW,286,1.0,11.0,46,0.00,,---,0.00,VWS V14.01,2013-05-09 19:55:00,
2013-05-09 16:00:00,77.3,52.5,29.99,West,267,1.0,5.0,42,0.00,,---,0.00,VWS V14.01,2013-05-09 20:00:00,
2013-05-09 16:05:00,77.1,53.5,29.99,SW,234,0.0,5.0,44,0.00,,---,0.00,VWS V14.01,2013-05-09 20:05:00,
2013-05-09 16:10:00,77.4,52.5,29.98,SW,226,0.0,5.0,42,0.00,,---,0.00,VWS V14.01,2013-05-09 20:10:00,
2013-05-09 16:15:00,77.9,53.6,29.98,WNW,302,3.0,7.0,43,0.00,,---,0.00,VWS V14.01,2013-05-09 20:15:00,
2013-05-09 16:20:00,78.2,54.5,29.98,WNW,289,6.0,7.0,44,0.00,,---,0.00,VWS V14.01,2013-05-09 20:20:00,
2013-05-09 16:25:00,77.9,56.1,29.99,NW,325,3.0,7.0,47,0.00,,---,0.00,VWS V14.01,2013-05-09 20:25:00,
2013-05-09 16:30:00,77.6,54.0,29.98,NW,323,0.0,0.0,44,0.00,,---,0.00,VWS V14.01,2013-05-09 20:30:00,
2013-05-09 16:35:00,77.6,53.4,29.98,NW,317,4.0,6.0,43,0.00,,---,0.00,VWS V14.01,2013-05-09 20:35:00,
2013-05-09 16:40:00,77.4,53.8,29.98,NW,317,0.0,6.0,44,0.00,,---,0.00,VWS V14.01,2013-05-09 20:40:00,
2013-05-09 16:45:00,77.1,54.8,29.98,WNW,301,4.0,7.0,46,0.00,,---,0.00,VWS V14.01,2013-05-09 20:45:00,
2013-05-09 16:50:00,76.9,54.0,29.98,WNW,300,1.0,7.0,45,0.00,,---,0.00,VWS V14.01,2013-05-09 20:50:00,
2013-05-09 16:55:00,77.1,54.2,29.98,WNW,300,0.0,7.0,45,0.00,,---,0.00,VWS V14.01,2013-05-09 20:55:00,
2013-05-09 17:00:00,77.4,53.8,29.98,NW,306,3.0,7.0,44,0.00,,---,0.00,VWS V14.01,2013-05-09 21:00:00,
2013-05-09 17:05:00,77.4,53.2,29.98,NNW,331,3.0,7.0,43,0.00,,---,0.00,VWS V14.01,2013-05-09 21:05:00,
2013-05-09 17:10:00,77.1,53.5,29.98,North,355,0.0,7.0,44,0.00,,---,0.00,VWS V14.01,2013-05-09 21:10:00,
2013-05-09 17:15:00,76.8,53.9,29.98,NW,325,3.0,7.0,45,0.00,,---,0.00,VWS V14.01,2013-05-09 21:15:00,
2013-05-09 17:20:00,76.5,54.8,29.98,NW,318,2.0,7.0,47,0.00,,---,0.00,VWS V14.01,2013-05-09 21:20:00,
2013-05-09 17:25:00,76.1,53.2,29.98,NW,317,2.0,7.0,45,0.00,,---,0.00,VWS V14.01,2013-05-09 21:25:00,
2013-05-09 17:30:00,75.9,54.2,29.98,NW,317,0.0,0.0,47,0.00,,---,0.00,VWS V14.01,2013-05-09 21:30:00,
2013-05-09 17:35:00,75.8,54.7,29.98,NW,317,2.0,4.0,48,0.00,,---,0.00,VWS V14.01,2013-05-09 21:35:00,
2013-05-09 17:40:00,76.3,55.8,29.98,NW,317,0.0,4.0,49,0.00,,---,0.00,VWS V14.01,2013-05-09 21:40:00,
2013-05-09 17:45:00,76.8,55.1,29.97,NW,317,2.0,4.0,47,0.00,,---,0.00,VWS V14.01,2013-05-09 21:45:00,
2013-05-09 17:50:00,77.4,56.2,29.97,NW,325,4.0,5.0,48,0.00,,---,0.00,VWS V14.01,2013-05-09 21:50:00,
2013-05-09 17:55:00,77.8,56.0,29.97,NW,325,0.0,5.0,47,0.00,,---,0.00,VWS V14.01,2013-05-09 21:55:00,
2013-05-09 18:00:00,78.4,54.1,29.97,WNW,296,2.0,3.0,43,0.00,,---,0.00,VWS V14.01,2013-05-09 22:00:00,
2013-05-09 18:05:00,78.8,56.3,29.97,WNW,296,0.0,3.0,46,0.00,,---,0.00,VWS V14.01,2013-05-09 22:05:00,
2013-05-09 18:10:00,79.2,57.2,29.97,WNW,296,0.0,3.0,47,0.00,,---,0.00,VWS V14.01,2013-05-09 22:10:00,
2013-05-09 18:15:00,79.1,55.3,29.97,WNW,302,0.0,3.0,44,0.00,,---,0.00,VWS V14.01,2013-05-09 22:15:00,
2013-05-09 18:20:00,78.8,54.4,29.97,WNW,303,0.0,4.0,43,0.00,,---,0.00,VWS V14.01,2013-05-09 22:20:00,
2013-05-09 18:25:00,78.5,52.9,29.97,WNW,296,0.0,5.0,41,0.00,,---,0.00,VWS V14.01,2013-05-09 22:25:00,
2013-05-09 18:30:00,78.1,53.8,29.97,NW,318,2.0,3.0,43,0.00,,---,0.00,VWS V14.01,2013-05-09 22:30:00,
2013-05-09 18:35:00,77.6,52.7,29.97,WNW,295,5.0,10.0,42,0.00,,---,0.00,VWS V14.01,2013-05-09 22:35:00,
2013-05-09 18:40:00,77.4,51.9,29.97,NW,311,1.0,10.0,41,0.00,,---,0.00,VWS V14.01,2013-05-09 22:40:00,
2013-05-09 18:45:00,77.4,51.9,29.97,West,279,6.0,10.0,41,0.00,,---,0.00,VWS V14.01,2013-05-09 22:45:00,
2013-05-09 18:50:00,77.5,54.5,29.97,WNW,295,0.0,10.0,45,0.00,,---,0.00,VWS V14.01,2013-05-09 22:50:00,
2013-05-09 18:55:00,77.6,53.4,29.97,WNW,295,0.0,10.0,43,0.00,,---,0.00,VWS V14.01,2013-05-09 22:55:00,
2013-05-09 19:00:00,77.7,53.5,29.97,WNW,302,2.0,4.0,43,0.00,,---,0.00,VWS V14.01,2013-05-09 23:00:00,
2013-05-09 19:05:00,77.8,53.5,29.97,WNW,302,0.0,4.0,43,0.00,,---,0.00,VWS V14.01,2013-05-09 23:05:00,
2013-05-09 19:10:00,77.8,53.5,29.97,NW,311,2.0,4.0,43,0.00,,---,0.00,VWS V14.01,2013-05-09 23:10:00,
2013-05-09 19:15:00,77.9,53.6,29.97,NW,311,0.0,4.0,43,0.00,,---,0.00,VWS V14.01,2013-05-09 23:15:00,
2013-05-09 19:20:00,77.8,53.5,29.97,NW,311,2.0,4.0,43,0.00,,---,0.00,VWS V14.01,2013-05-09 23:20:00,
2013-05-09 19:25:00,77.5,54.5,29.97,NW,311,1.0,4.0,45,0.00,,---,0.00,VWS V14.01,2013-05-09 23:25:00,
2013-05-09 19:30:00,77.2,53.6,29.98,NW,311,3.0,3.0,44,0.00,,---,0.00,VWS V14.01,2013-05-09 23:30:00,
2013-05-09 19:35:00,77.1,53.5,29.98,NW,309,0.0,3.0,44,0.00,,---,0.00,VWS V14.01,2013-05-09 23:35:00,
2013-05-09 19:40:00,76.7,53.8,29.98,NW,309,0.0,3.0,45,0.00,,---,0.00,VWS V14.01,2013-05-09 23:40:00,
2013-05-09 19:45:00,76.4,52.9,29.98,NW,309,0.0,3.0,44,0.00,,---,0.00,VWS V14.01,2013-05-09 23:45:00,
2013-05-09 19:50:00,76.0,54.9,29.98,NW,309,0.0,3.0,48,0.00,,---,0.00,VWS V14.01,2013-05-09 23:50:00,
2013-05-09 19:55:00,75.5,55.0,29.99,NW,309,0.0,3.0,49,0.00,,---,0.00,VWS V14.01,2013-05-09 23:55:00,
2013-05-09 20:00:00,74.8,55.5,29.99,NW,309,0.0,0.0,51,0.00,,---,0.00,VWS V14.01,2013-05-10 00:00:00,
2013-05-09 20:05:00,74.1,55.9,29.99,NW,309,0.0,0.0,53,0.00,,---,0.00,VWS V14.01,2013-05-10 00:05:00,
2013-05-09 20:10:00,73.3,55.2,29.99,NW,309,0.0,0.0,53,0.00,,---,0.00,VWS V14.01,2013-05-10 00:10:00,
2013-05-09 20:15:00,72.4,56.3,29.99,NW,309,0.0,0.0,57,0.00,,---,0.00,VWS V14.01,2013-05-10 00:15:00,
2013-05-09 20:20:00,71.4,57.3,30.00,NW,309,0.0,0.0,61,0.00,,---,0.00,VWS V14.01,2013-05-10 00:20:00,
2013-05-09 20:25:00,70.3,56.7,30.00,NW,309,1.0,2.0,62,0.00,,---,0.00,VWS V14.01,2013-05-10 00:25:00,
2013-05-09 20:30:00,69.4,56.3,30.00,NW,309,0.0,2.0,63,0.00,,---,0.00,VWS V14.01,2013-05-10 00:30:00,
2013-05-09 20:35:00,68.8,56.1,30.00,NW,309,2.0,4.0,64,0.00,,---,0.00,VWS V14.01,2013-05-10 00:35:00,
2013-05-09 20:40:00,68.3,56.5,30.00,NW,309,2.0,4.0,66,0.00,,---,0.00,VWS V14.01,2013-05-10 00:40:00,
2013-05-09 20:45:00,67.8,56.5,30.00,NW,309,1.0,4.0,67,0.00,,---,0.00,VWS V14.01,2013-05-10 00:45:00,
2013-05-09 20:50:00,67.3,56.4,30.00,NW,309,2.0,4.0,68,0.00,,---,0.00,VWS V14.01,2013-05-10 00:50:00,
2013-05-09 20:55:00,66.8,56.3,30.01,NW,309,2.0,4.0,69,0.00,,---,0.00,VWS V14.01,2013-05-10 00:55:00,
2013-05-09 21:00:00,66.3,57.4,30.01,NW,309,1.0,2.0,73,0.00,,---,0.00,VWS V14.01,2013-05-10 01:00:00,
2013-05-09 21:05:00,65.6,56.7,30.01,NW,309,0.0,3.0,73,0.00,,---,0.00,VWS V14.01,2013-05-10 01:05:00,
2013-05-09 21:10:00,65.1,57.0,30.01,NW,309,0.0,3.0,75,0.00,,---,0.00,VWS V14.01,2013-05-10 01:10:00,
2013-05-09 21:15:00,64.6,57.2,30.02,NW,309,1.0,3.0,77,0.00,,---,0.00,VWS V14.01,2013-05-10 01:15:00,
2013-05-09 21:20:00,64.1,57.1,30.01,NW,309,0.0,3.0,78,0.00,,---,0.00,VWS V14.01,2013-05-10 01:20:00,
2013-05-09 21:25:00,63.7,57.1,30.01,NW,309,0.0,3.0,79,0.00,,---,0.00,VWS V14.01,2013-05-10 01:25:00,
2013-05-09 21:30:00,63.3,57.0,30.02,NW,309,0.0,0.0,80,0.00,,---,0.00,VWS V14.01,2013-05-10 01:30:00,
2013-05-09 21:35:00,63.0,56.7,30.02,NW,309,0.0,0.0,80,0.00,,---,0.00,VWS V14.01,2013-05-10 01:35:00,
2013-05-09 21:40:00,62.6,56.7,30.02,NW,309,0.0,0.0,81,0.00,,---,0.00,VWS V14.01,2013-05-10 01:40:00,
2013-05-09 21:45:00,62.3,56.4,30.02,NW,309,0.0,0.0,81,0.00,,---,0.00,VWS V14.01,2013-05-10 01:45:00,
2013-05-09 21:50:00,62.0,56.1,30.02,NW,309,0.0,0.0,81,0.00,,---,0.00,VWS V14.01,2013-05-10 01:50:00,
2013-05-09 21:55:00,61.7,56.2,30.02,NW,309,0.0,0.0,82,0.00,,---,0.00,VWS V14.01,2013-05-10 01:55:00,
2013-05-09 22:00:00,61.4,56.2,30.02,NW,309,0.0,0.0,83,0.00,,---,0.00,VWS V14.01,2013-05-10 02:00:00,
2013-05-09 22:05:00,61.1,56.2,30.02,NW,309,0.0,0.0,84,0.00,,---,0.00,VWS V14.01,2013-05-10 02:05:00,
2013-05-09 22:10:00,60.7,56.2,30.03,NW,309,0.0,0.0,85,0.00,,---,0.00,VWS V14.01,2013-05-10 02:10:00,
2013-05-09 22:15:00,60.2,55.7,30.03,NW,309,0.0,4.0,85,0.00,,---,0.00,VWS V14.01,2013-05-10 02:15:00,
2013-05-09 22:20:00,59.7,55.5,30.03,NW,309,0.0,4.0,86,0.00,,---,0.00,VWS V14.01,2013-05-10 02:20:00,
2013-05-09 22:25:00,59.4,54.9,30.03,NW,309,0.0,4.0,85,0.00,,---,0.00,VWS V14.01,2013-05-10 02:25:00,
2013-05-09 22:30:00,59.3,54.8,30.03,NW,309,0.0,0.0,85,0.00,,---,0.00,VWS V14.01,2013-05-10 02:30:00,
2013-05-09 22:35:00,59.2,55.0,30.03,NW,309,0.0,0.0,86,0.00,,---,0.00,VWS V14.01,2013-05-10 02:35:00,
2013-05-09 22:40:00,59.2,55.3,30.03,NW,309,0.0,0.0,87,0.00,,---,0.00,VWS V14.01,2013-05-10 02:40:00,
2013-05-09 22:45:00,59.2,55.3,30.02,NW,309,0.0,1.0,87,0.00,,---,0.00,VWS V14.01,2013-05-10 02:45:00,
2013-05-09 22:50:00,59.1,55.2,30.03,NW,309,0.0,1.0,87,0.00,,---,0.00,VWS V14.01,2013-05-10 02:50:00,
2013-05-09 22:55:00,59.0,55.1,30.02,NW,309,0.0,1.0,87,0.00,,---,0.00,VWS V14.01,2013-05-10 02:55:00,
2013-05-09 23:00:00,58.8,55.3,30.02,NW,309,0.0,0.0,88,0.00,,---,0.00,VWS V14.01,2013-05-10 03:00:00,
2013-05-09 23:05:00,58.7,55.2,30.02,NW,309,0.0,2.0,88,0.00,,---,0.00,VWS V14.01,2013-05-10 03:05:00,
2013-05-09 23:10:00,58.5,55.3,30.02,NW,309,0.0,2.0,89,0.00,,---,0.00,VWS V14.01,2013-05-10 03:10:00,
2013-05-09 23:15:00,58.4,55.2,30.02,NW,309,0.0,3.0,89,0.00,,---,0.00,VWS V14.01,2013-05-10 03:15:00,
2013-05-09 23:20:00,58.1,54.9,30.02,NW,309,0.0,3.0,89,0.00,,---,0.00,VWS V14.01,2013-05-10 03:20:00,
2013-05-09 23:25:00,58.0,55.1,30.02,NW,309,0.0,3.0,90,0.00,,---,0.00,VWS V14.01,2013-05-10 03:25:00,
2013-05-09 23:30:00,57.8,54.9,30.02,NW,309,0.0,0.0,90,0.00,,---,0.00,VWS V14.01,2013-05-10 03:30:00,
2013-05-09 23:35:00,57.6,54.7,30.02,NW,309,0.0,0.0,90,0.00,,---,0.00,VWS V14.01,2013-05-10 03:35:00,
2013-05-09 23:40:00,57.4,54.5,30.02,NW,309,0.0,0.0,90,0.00,,---,0.00,VWS V14.01,2013-05-10 03:40:00,
2013-05-09 23:45:00,57.1,54.5,30.02,NW,309,0.0,0.0,91,0.00,,---,0.00,VWS V14.01,2013-05-10 03:45:00,
2013-05-09 23:50:00,57.1,54.5,30.02,NW,309,0.0,0.0,91,0.00,,---,0.00,VWS V14.01,2013-05-10 03:50:00,
2013-05-09 23:55:00,57.0,54.4,30.02,NW,309,0.0,0.0,91,0.00,,---,0.00,VWS V14.01,2013-05-10 03:55:00,